Flag for Russia Weather past 2 weeks in Nizhny Novgorod, Russia

Now
52 °F

Sunny.


Feels Like: 49 °F
Forecast: 33 / 54 °F
Wind: 8 mph from South

Location: Nizhny Novgorod/Strigino


UV Index: 0 (Low)

Visibility: 10 mi


Pressure: 30.09 "Hg

Humidity: 72%

Dew point: 43 °F

Location of Nizhny NovgorodLocation

Historic Weather in Nizhny Novgorod

°F

Nizhny Novgorod temperature yesterday

Maximum temperature yesterday: 57 °F (at 5:00 PM)
Minimum temperature yesterday: 41 °F (at 10:30 PM)
Average temperature yesterday: 48 °F

Past Weeks' High & Low Weather Summary

 TemperatureHumidityPressure
High57 °F (Apr 15, 5:00 PM)100% (Apr 4, 6:30 PM)30.54 "Hg (Apr 4, 6:30 PM)
Low12 °F (Apr 11, 6:00 AM)18% (Apr 11, 3:30 PM)29.59 "Hg (Apr 4, 7:00 PM)
Average36 °F57%29.94 "Hg
* Reported Apr 1 10:00 AM — Apr 16 10:00 AM, Nizhny Novgorod, Weather by CustomWeather, © 2014

Note: Actual official high and low records may vary slightly from our data, if they occured in-between our weather recording intervals... More about our weather records

Advertising

Historic Weather Conditions — Data for Previous 24 hours

 ConditionsComfort  
Time TempWeatherWind HumidityBarometerVisibility
10:00 AM
Apr 16
52 °FSunny.8 mph77%30.09 "Hg10 mi
9:30 AM50 °FPartly sunny.10 mph76%30.09 "Hg6 mi
9:00 AM48 °FPartly sunny.10 mph82%30.09 "Hg6 mi
8:30 AM48 °FPartly sunny.8 mph82%30.09 "Hg6 mi
8:00 AM46 °FPartly sunny.6 mph87%30.09 "Hg6 mi
7:30 AM45 °FPartly sunny.8 mph87%30.09 "Hg6 mi
7:00 AM45 °FPartly sunny.6 mph87%30.09 "Hg5 mi
6:30 AM43 °FPassing clouds.6 mph87%30.07 "Hg5 mi
6:00 AM43 °FPassing clouds.6 mph93%30.07 "Hg5 mi
5:30 AM43 °FPassing clouds.6 mph87%30.07 "Hg5 mi
5:00 AM43 °FPassing clouds.6 mph87%30.07 "Hg4 mi
4:30 AM41 °FPassing clouds.6 mph93%30.07 "Hg4 mi
3:00 AM43 °FPassing clouds.6 mph87%30.07 "Hg5 mi
2:30 AM45 °FPartly cloudy.3 mph81%30.07 "Hg4 mi
2:00 AM45 °FPartly cloudy.3 mph81%30.07 "Hg5 mi
1:30 AM41 °FPartly cloudy.1 mph93%30.07 "Hg4 mi
1:00 AM45 °FPartly cloudy.3 mph81%30.07 "Hg5 mi
12:30 AM45 °FPartly cloudy.3 mph81%30.07 "Hg6 mi
12:00 AM45 °FPartly cloudy.6 mph87%30.07 "Hg6 mi
11:30 PM
Apr 15
45 °FPartly cloudy.6 mph87%30.07 "Hg5 mi
11:00 PM43 °FPartly cloudy.6 mph93%30.07 "Hg6 mi
10:30 PM41 °FFog.No wind100%30.07 "Hg3 mi
10:00 PM43 °FFog.1 mph93%30.07 "Hg3 mi
9:30 PM43 °FFog.1 mph100%30.07 "Hg3 mi
9:00 PM45 °FBroken clouds.No wind87%30.04 "Hg4 mi
8:30 PM48 °FBroken clouds.3 mph82%30.04 "Hg4 mi
8:00 PM50 °FLight rain. Fog.No wind88%30.04 "Hg3 mi
7:30 PM50 °FBroken clouds.1 mph82%30.04 "Hg5 mi
7:00 PM52 °FLight rain. Broken clouds.No wind77%30.01 "Hg6 mi
6:30 PM55 °FBroken clouds.1 mph55%30.01 "HgN/A
6:00 PM55 °FBroken clouds.1 mph55%30.01 "HgN/A
5:30 PM55 °FBroken clouds.6 mph51%30.01 "HgN/A
5:00 PM57 °FBroken clouds.8 mph51%30.01 "HgN/A
4:30 PM55 °FBroken clouds.6 mph55%30.01 "HgN/A
4:00 PM55 °FBroken clouds.8 mph55%30.01 "HgN/A
3:30 PM55 °FPartly sunny.10 mph55%29.98 "HgN/A
3:00 PM54 °FPartly sunny.6 mph58%29.98 "HgN/A
2:30 PM54 °FPassing clouds.6 mph58%29.98 "HgN/A
2:00 PM52 °FPartly sunny.6 mph62%29.98 "HgN/A
1:30 PM52 °FPartly sunny.6 mph62%29.98 "HgN/A
1:00 PM50 °FPartly sunny.6 mph67%29.98 "HgN/A
12:30 PM50 °FSunny.8 mph67%29.98 "Hg10 mi
12:00 PM48 °FPartly sunny.10 mph71%29.98 "HgN/A
11:00 AM48 °FPartly sunny.13 mph71%29.98 "HgN/A
Weather by CustomWeather, © 2014

See weather overview